Last 6 Hours

Alpine-Roundhouse Btm 6950'

15 Minute Data | America/Los_Angeles
as of 10/27/20 6:59 PM PDT
Date & Time Temp (°F) RH (%) Dew Pt (°F) Wet Bulb (°F) Wind Dir (°) Wind Spd (mph) Wind Gust (mph) WindChill (°F) Barometric Pressure (inHg) SnowDepth (in) Latest Rain (In) Daily Rain (In) Daily Min Temp (°F) Daily Max Temp (°F)
10/27/20 - 1845 49.1 26 16.1 35.6 WNW | 283 1.9 5.5 49.1 30.27 3.7 0.00 0.00 30.0 54.4
10/27/20 - 1830 49.8 27 17.4 36.2 WSW | 246 1.9 4.9 48.2 30.27 3.0 0.00 0.00 30.0 54.4
10/27/20 - 1815 49.6 27 17.2 36.1 NW | 306 3.0 7.3 49.6 30.25 4.6 0.00 0.00 30.0 54.4
10/27/20 - 1800 49.7 29 18.9 36.6 NNW | 332 3.0 12.1 49.7 30.26 3.4 0.00 0.00 30.0 54.4
10/27/20 - 1745 51.4 29 20.2 37.8 NNW | 333 2.8 7.4 51.4 30.26 2.6 0.00 0.00 30.0 54.4
10/27/20 - 1730 51.5 28 19.1 37.5 N | 349 3.4 7.7 51.5 30.26 2.6 0.00 0.00 30.0 54.4
10/27/20 - 1715 52.1 27 19.1 37.8 N | 351 4.3 10.7 52.1 30.25 3.9 0.00 0.00 30.0 54.4
10/27/20 - 1700 52.5 24 16.8 37.4 NNW | 345 2.9 14.3 52.5 30.26 1.0 0.00 0.00 30.0 54.4
10/27/20 - 1645 52.5 25 17.6 37.6 NW | 315 3.1 8.9 52.5 30.25 1.4 0.00 0.00 30.0 54.4
10/27/20 - 1630 52.5 24 16.9 37.5 N | 349 4.4 13.7 52.5 30.26 1.7 0.00 0.00 30.0 54.4
10/27/20 - 1615 53.4 25 18.2 38.2 NW | 315 2.8 7.6 53.4 30.24 1.8 0.00 0.00 30.0 54.4
10/27/20 - 1600 53.3 27 19.9 38.6 SW | 236 2.4 9.5 53.3 30.26 3.8 0.00 0.00 30.0 54.4
10/27/20 - 1545 53.6 28 21.7 39.3 NNW | 344 4.1 9.1 53.6 30.25 2.1 0.00 0.00 30.0 54.4
10/27/20 - 1530 54.2 27 21.2 39.4 N | 7 4.3 12.4 54.2 30.25 3.0 0.00 0.00 30.0 54.2
10/27/20 - 1515 53.5 30 22.9 39.5 N | 358 4.2 14.5 53.5 30.24 1.6 0.00 0.00 30.0 54.0
10/27/20 - 1500 53.7 30 23.3 39.7 N | 360 4.9 13.0 53.7 30.25 3.1 0.00 0.00 30.0 54.0
10/27/20 - 1445 53.7 31 23.4 39.8 N | 353 2.1 10.5 53.7 30.25 1.2 0.00 0.00 30.0 54.0
10/27/20 - 1430 52.9 34 25.7 40.1 NW | 319 3.3 11.8 52.9 30.23 3.2 0.00 0.00 30.0 53.1
10/27/20 - 1415 53.0 37 27.5 40.7 NNW | 344 3.1 15.5 53.0 30.23 2.4 0.00 0.00 30.0 53.0
10/27/20 - 1400 52.1 39 28.1 40.5 N | 354 4.0 9.3 52.1 30.24 1.6 0.00 0.00 30.0 52.5
10/27/20 - 1345 52.1 40 28.4 40.6 NNW | 343 4.3 11.7 50.0 30.25 1.8 0.00 0.00 30.0 52.1
10/27/20 - 1330 51.3 39 27.1 39.8 N | 2 3.9 13.4 51.3 30.24 1.1 0.00 0.00 30.0 51.9
10/27/20 - 1315 51.1 39 27.0 39.7 SSE | 147 4.7 13.6 51.1 30.25 1.4 0.00 0.00 30.0 51.3
10/27/20 - 1300 50.3 39 26.6 39.2 SSE | 149 5.2 13.5 48.1 30.25 1.7 0.00 0.00 30.0 50.5
Max 54.2 40 28.4 40.7 - 5.2 15.5 54.2 30.27 4.6 0.00 0.00 30.0 54.4
Avg 52.0 31 21.7 38.6 - 3.5 10.7 51.8 30.25 2.4 0.00 - - -
Min 49.1 24 16.1 35.6 - 1.9 4.9 48.1 30.23 1.0 0.00 0.00 30.0 50.5
Total - - - - - - - - - - 0.00 - - -